Flag for Germany Weather past 2 weeks in Verden (Aller), Lower Saxony, Germany

Now
59 °F

Clear.


Feels Like: 58 °F
Forecast: 53 / 67 °F
Wind: 6 mph from South

Location: Bremen Airport

Current Time: Aug 30, 2014 at 3:06:08 AM

Latest Report: Aug 30, 2014 at 2:20 AM


Visibility: 10 mi

Pressure: 29.95 "Hg

Humidity: 88%

Dew point: 55 °F

Location of Verden (Aller)Location

Historic Weather in Verden (Aller) — Graph

°F

Verden (Aller) temperature yesterday

Maximum temperature yesterday: 72 °F (at 3:50 PM)
Minimum temperature yesterday: 59 °F (at 9:20 PM)
Average temperature yesterday: 65 °F

Past Weeks' High & Low Weather Summary

 TemperatureHumidityPressure
High75 °F (Aug 28, 2:50 PM)100% (Aug 15, 3:20 AM)30.04 "Hg (Aug 15, 3:20 AM)
Low43 °F (Aug 25, 4:50 AM)33% (Aug 27, 2:20 PM)29.53 "Hg (Aug 18, 6:20 AM)
Average57 °F79%29.86 "Hg
* Reported Aug 15 1:20 AM — Aug 30 1:20 AM, Verden (Aller), Weather by CustomWeather, © 2014

Note: Actual official high and low records may vary slightly from our data, if they occured in-between our weather recording intervals... More about our weather records

Advertising

Verden (Aller) weather history for previous 24 hours

 ConditionsComfort  
Time TempWeatherWind HumidityBarometerVisibility
1:20 AM
Aug 30
57 °FClear.5 mph88%29.95 "Hg10 mi
12:50 AM57 °FClear.5 mph88%29.95 "Hg10 mi
12:20 AM59 °FClear.6 mph82%29.95 "Hg10 mi
11:50 PM
Aug 29
59 °FClear.7 mph82%29.95 "Hg10 mi
11:20 PM59 °FClear.7 mph82%29.95 "Hg10 mi
9:20 PM59 °FSunny.2 mph88%29.95 "Hg10 mi
8:50 PM63 °FSunny.3 mph73%29.95 "Hg10 mi
8:20 PM64 °FBroken clouds.3 mph73%29.92 "HgN/A
7:50 PM66 °FPartly sunny.8 mph68%29.92 "HgN/A
7:20 PM66 °FPartly sunny.8 mph64%29.92 "HgN/A
6:50 PM68 °FBroken clouds.9 mph56%29.92 "HgN/A
6:20 PM68 °FBroken clouds.12 mph56%29.92 "HgN/A
5:50 PM72 °FPartly sunny.14 mph50%29.92 "HgN/A
5:20 PM72 °FPartly sunny.13 mph50%29.92 "HgN/A
4:50 PM72 °FScattered clouds.12 mph53%29.92 "HgN/A
4:20 PM72 °FPassing clouds.15 mph47%29.92 "HgN/A
3:50 PM72 °FPassing clouds.10 mph50%29.92 "HgN/A
3:20 PM70 °FPassing clouds.13 mph53%29.92 "HgN/A
2:50 PM70 °FPassing clouds.13 mph53%29.92 "HgN/A
2:20 PM70 °FPassing clouds.16 mph57%29.92 "HgN/A
1:50 PM68 °FPassing clouds.16 mph60%29.92 "HgN/A
1:20 PM70 °FPassing clouds.18 mph57%29.92 "HgN/A
12:50 PM70 °FPassing clouds.16 mph57%29.92 "HgN/A
12:20 PM68 °FPassing clouds.16 mph60%29.92 "HgN/A
11:50 AM64 °FPassing clouds.13 mph73%29.92 "HgN/A
11:20 AM64 °FScattered clouds.12 mph78%29.92 "HgN/A
10:50 AM66 °FBroken clouds.10 mph78%29.92 "HgN/A
10:20 AM64 °FBroken clouds.10 mph83%29.92 "HgN/A
9:50 AM63 °FBroken clouds.12 mph88%29.92 "Hg4 mi
9:20 AM63 °FPartly sunny.9 mph88%29.92 "Hg4 mi
8:50 AM63 °FPartly sunny.7 mph88%29.92 "Hg4 mi
8:20 AM63 °FPartly sunny.9 mph88%29.92 "Hg4 mi
7:50 AM63 °FPartly sunny.5 mph94%29.92 "Hg4 mi
7:20 AM63 °FLight rain. Passing clouds.6 mph94%29.89 "Hg4 mi
6:50 AM63 °FLight rain. Passing clouds.7 mph94%29.89 "Hg4 mi
6:20 AM63 °FPassing clouds.6 mph94%29.89 "Hg6 mi
5:50 AM61 °FLight rain. Passing clouds.3 mph94%29.89 "HgN/A
5:20 AM61 °FLight rain. Passing clouds.3 mph94%29.89 "HgN/A
4:50 AM61 °FLight rain. Passing clouds.3 mph94%29.89 "HgN/A
4:20 AM61 °FPassing clouds.3 mph94%29.89 "HgN/A
3:20 AM63 °FPassing clouds.5 mph88%29.89 "HgN/A
Weather by CustomWeather, © 2014

See weather overviewHow to use our weather pages